Wetterdaten: Woche 07.05.07 - 13.05.07 (KW19)
Datum Zeit Temperatur Luftfeuchte Luftdruck Niederschlag
07.05.2007 00:00 9,9 C 88 % 1019 hPa 0,0 l/m
07.05.2007 01:00 8,9 C 94 % 1019 hPa 0,0 l/m
07.05.2007 02:00 8,6 C 96 % 1019 hPa 0,0 l/m
07.05.2007 03:00 8,4 C 96 % 1019 hPa 0,0 l/m
07.05.2007 04:00 8,4 C 96 % 1019 hPa 0,0 l/m
07.05.2007 05:00 7,6 C 97 % 1019 hPa 0,0 l/m
07.05.2007 06:00 7,5 C 98 % 1019 hPa 0,0 l/m
07.05.2007 07:00 7,9 C 98 % 1019 hPa 0,0 l/m
07.05.2007 08:00 10,3 C 94 % 1020 hPa 0,0 l/m
07.05.2007 09:00 11,5 C 77 % 1020 hPa 0,0 l/m
07.05.2007 10:00 12,4 C 70 % 1020 hPa 0,0 l/m
07.05.2007 11:00 13,7 C 61 % 1020 hPa 0,0 l/m
07.05.2007 12:00 13,2 C 68 % 1020 hPa 0,0 l/m
07.05.2007 13:00 12,1 C 83 % 1020 hPa 1,0 l/m
07.05.2007 14:00 12,7 C 81 % 1020 hPa 1,0 l/m
07.05.2007 15:00 12,3 C 82 % 1020 hPa 0,0 l/m
07.05.2007 16:00 13,8 C 72 % 1019 hPa 0,0 l/m
07.05.2007 17:00 14,5 C 67 % 1019 hPa 0,0 l/m
07.05.2007 18:00 14,5 C 66 % 1019 hPa 0,0 l/m
07.05.2007 19:00 13,9 C 68 % 1018 hPa 0,0 l/m
07.05.2007 20:00 12,9 C 72 % 1018 hPa 0,0 l/m
07.05.2007 21:00 13,0 C 72 % 1018 hPa 0,0 l/m
07.05.2007 22:00 13,3 C 67 % 1018 hPa 0,0 l/m
07.05.2007 23:00 13,2 C 67 % 1018 hPa 0,0 l/m
08.05.2007 00:00 13,1 C 68 % 1018 hPa 0,0 l/m
08.05.2007 01:00 13,2 C 65 % 1018 hPa 0,0 l/m
08.05.2007 02:00 13,3 C 66 % 1017 hPa 0,0 l/m
08.05.2007 03:00 13,0 C 71 % 1017 hPa 0,0 l/m
08.05.2007 04:00 12,4 C 77 % 1017 hPa 0,0 l/m
08.05.2007 05:00 12,0 C 80 % 1017 hPa 0,0 l/m
08.05.2007 06:00 11,8 C 85 % 1017 hPa 0,0 l/m
08.05.2007 07:00 11,8 C 90 % 1017 hPa 0,0 l/m
08.05.2007 08:00 12,3 C 87 % 1018 hPa 0,0 l/m
08.05.2007 09:00 12,5 C 88 % 1018 hPa 4,0 l/m
08.05.2007 10:00 11,6 C 93 % 1018 hPa 1,0 l/m
08.05.2007 11:00 12,6 C 93 % 1018 hPa 0,0 l/m
08.05.2007 12:00 13,9 C 84 % 1019 hPa 0,0 l/m
08.05.2007 13:00 14,2 C 75 % 1018 hPa 1,0 l/m
08.05.2007 14:00 14,5 C 70 % 1018 hPa 0,0 l/m
08.05.2007 15:00 13,8 C 83 % 1017 hPa 0,0 l/m
08.05.2007 16:00 13,7 C 87 % 1016 hPa 0,0 l/m
08.05.2007 17:00 13,6 C 91 % 1015 hPa 1,0 l/m
08.05.2007 18:00 13,7 C 91 % 1016 hPa 0,0 l/m
08.05.2007 19:00 13,8 C 91 % 1016 hPa 0,0 l/m
08.05.2007 20:00 13,6 C 91 % 1017 hPa 1,0 l/m
08.05.2007 21:00 13,1 C 94 % 1018 hPa 7,0 l/m
08.05.2007 22:00 12,5 C 96 % 1019 hPa 0,0 l/m
08.05.2007 23:00 12,0 C 96 % 1019 hPa 0,0 l/m
09.05.2007 00:00 12,1 C 97 % 1018 hPa 0,0 l/m
09.05.2007 01:00 12,1 C 96 % 1018 hPa 0,0 l/m
09.05.2007 02:00 12,0 C 96 % 1018 hPa 1,0 l/m
09.05.2007 03:00 11,9 C 97 % 1017 hPa 1,0 l/m
09.05.2007 04:00 11,7 C 97 % 1017 hPa 2,0 l/m
09.05.2007 05:00 11,8 C 98 % 1017 hPa 1,0 l/m
09.05.2007 06:00 12,2 C 96 % 1017 hPa 0,0 l/m
09.05.2007 07:00 12,5 C 92 % 1017 hPa 0,0 l/m
09.05.2007 08:00 12,9 C 86 % 1018 hPa 0,0 l/m
09.05.2007 09:00 13,5 C 81 % 1018 hPa 0,0 l/m
09.05.2007 10:00 14,0 C 75 % 1018 hPa 0,0 l/m
09.05.2007 11:00 14,3 C 72 % 1019 hPa 0,0 l/m
09.05.2007 12:00 15,1 C 67 % 1019 hPa 0,0 l/m
09.05.2007 13:00 15,9 C 59 % 1020 hPa 0,0 l/m
09.05.2007 14:00 15,4 C 64 % 1020 hPa 0,0 l/m
09.05.2007 15:00 16,1 C 57 % 1020 hPa 0,0 l/m
09.05.2007 16:00 15,9 C 56 % 1020 hPa 0,0 l/m
09.05.2007 17:00 16,0 C 53 % 1020 hPa 0,0 l/m
09.05.2007 18:00 15,3 C 53 % 1020 hPa 0,0 l/m
09.05.2007 19:00 15,0 C 53 % 1020 hPa 0,0 l/m
09.05.2007 20:00 14,5 C 55 % 1020 hPa 0,0 l/m
09.05.2007 21:00 14,0 C 57 % 1021 hPa 0,0 l/m
09.05.2007 22:00 13,6 C 58 % 1021 hPa 0,0 l/m
09.05.2007 23:00 13,1 C 61 % 1021 hPa 0,0 l/m
10.05.2007 00:00 12,3 C 66 % 1021 hPa 0,0 l/m
10.05.2007 01:00 11,7 C 71 % 1021 hPa 0,0 l/m
10.05.2007 02:00 11,3 C 72 % 1021 hPa 0,0 l/m
10.05.2007 03:00 11,1 C 70 % 1020 hPa 0,0 l/m
10.05.2007 04:00 10,0 C 75 % 1020 hPa 0,0 l/m
10.05.2007 05:00 9,0 C 83 % 1020 hPa 0,0 l/m
10.05.2007 06:00 9,9 C 78 % 1020 hPa 0,0 l/m
10.05.2007 07:00 11,7 C 67 % 1020 hPa 0,0 l/m
10.05.2007 08:00 13,4 C 57 % 1020 hPa 0,0 l/m
10.05.2007 09:00 14,9 C 52 % 1020 hPa 0,0 l/m
10.05.2007 10:00 16,3 C 48 % 1020 hPa 0,0 l/m
10.05.2007 11:00 17,8 C 45 % 1020 hPa 0,0 l/m
10.05.2007 12:00 19,2 C 41 % 1019 hPa 0,0 l/m
10.05.2007 13:00 20,1 C 35 % 1019 hPa 0,0 l/m
10.05.2007 14:00 20,9 C 32 % 1018 hPa 0,0 l/m
10.05.2007 15:00 21,4 C 29 % 1018 hPa 0,0 l/m
10.05.2007 16:00 21,8 C 28 % 1017 hPa 0,0 l/m
10.05.2007 17:00 21,4 C 27 % 1016 hPa 0,0 l/m
10.05.2007 18:00 21,3 C 28 % 1016 hPa 0,0 l/m
10.05.2007 19:00 20,5 C 30 % 1015 hPa 0,0 l/m
10.05.2007 20:00 18,8 C 35 % 1015 hPa 0,0 l/m
10.05.2007 21:00 16,5 C 41 % 1014 hPa 0,0 l/m
10.05.2007 22:00 14,9 C 46 % 1014 hPa 0,0 l/m
10.05.2007 23:00 14,0 C 50 % 1014 hPa 0,0 l/m
11.05.2007 00:00 13,3 C 54 % 1013 hPa 0,0 l/m
11.05.2007 01:00 13,4 C 51 % 1013 hPa 0,0 l/m
11.05.2007 02:00 13,4 C 51 % 1012 hPa 0,0 l/m
11.05.2007 03:00 13,1 C 52 % 1012 hPa 0,0 l/m
11.05.2007 04:00 12,2 C 57 % 1011 hPa 0,0 l/m
11.05.2007 05:00 12,5 C 55 % 1011 hPa 0,0 l/m
11.05.2007 06:00 14,0 C 47 % 1010 hPa 0,0 l/m
11.05.2007 07:00 16,7 C 41 % 1011 hPa 0,0 l/m
11.05.2007 08:00 17,6 C 43 % 1011 hPa 0,0 l/m
11.05.2007 09:00 18,3 C 39 % 1012 hPa 0,0 l/m
11.05.2007 10:00 18,5 C 39 % 1012 hPa 0,0 l/m
11.05.2007 11:00 18,7 C 41 % 1012 hPa 0,0 l/m
11.05.2007 12:00 19,2 C 37 % 1012 hPa 0,0 l/m
11.05.2007 13:00 18,9 C 37 % 1013 hPa 0,0 l/m
11.05.2007 14:00 18,8 C 38 % 1013 hPa 0,0 l/m
11.05.2007 15:00 18,3 C 40 % 1013 hPa 0,0 l/m
11.05.2007 16:00 18,0 C 41 % 1013 hPa 0,0 l/m
11.05.2007 17:00 17,8 C 42 % 1013 hPa 0,0 l/m
11.05.2007 18:00 17,2 C 43 % 1013 hPa 0,0 l/m
11.05.2007 19:00 16,7 C 45 % 1013 hPa 0,0 l/m
11.05.2007 20:00 16,0 C 44 % 1014 hPa 0,0 l/m
11.05.2007 21:00 15,4 C 45 % 1014 hPa 0,0 l/m
11.05.2007 22:00 14,5 C 54 % 1015 hPa 0,0 l/m
11.05.2007 23:00 13,2 C 66 % 1015 hPa 0,0 l/m
12.05.2007 00:00 12,5 C 74 % 1015 hPa 0,0 l/m
12.05.2007 01:00 12,1 C 76 % 1014 hPa 0,0 l/m
12.05.2007 02:00 12,2 C 73 % 1014 hPa 0,0 l/m
12.05.2007 03:00 12,4 C 75 % 1013 hPa 0,0 l/m
12.05.2007 04:00 12,0 C 81 % 1013 hPa 0,0 l/m
12.05.2007 05:00 11,6 C 83 % 1013 hPa 0,0 l/m
12.05.2007 06:00 12,4 C 76 % 1013 hPa 0,0 l/m
12.05.2007 07:00 13,1 C 75 % 1014 hPa 0,0 l/m
12.05.2007 08:00 14,1 C 71 % 1014 hPa 0,0 l/m
12.05.2007 09:00 15,0 C 65 % 1015 hPa 0,0 l/m
12.05.2007 10:00 15,8 C 59 % 1015 hPa 0,0 l/m
12.05.2007 11:00 17,3 C 46 % 1015 hPa 0,0 l/m
12.05.2007 12:00 18,5 C 37 % 1015 hPa 0,0 l/m
12.05.2007 13:00 19,1 C 36 % 1015 hPa 0,0 l/m
12.05.2007 14:00 19,6 C 34 % 1015 hPa 0,0 l/m
12.05.2007 15:00 20,0 C 33 % 1015 hPa 0,0 l/m
12.05.2007 16:00 20,4 C 30 % 1015 hPa 0,0 l/m
12.05.2007 17:00 20,6 C 30 % 1015 hPa 0,0 l/m
12.05.2007 18:00 20,6 C 30 % 1015 hPa 0,0 l/m
12.05.2007 19:00 19,5 C 32 % 1015 hPa 0,0 l/m
12.05.2007 20:00 17,7 C 34 % 1016 hPa 0,0 l/m
12.05.2007 21:00 15,3 C 43 % 1017 hPa 0,0 l/m
12.05.2007 22:00 13,2 C 51 % 1017 hPa 0,0 l/m
12.05.2007 23:00 11,6 C 59 % 1017 hPa 0,0 l/m
13.05.2007 00:00 10,3 C 66 % 1017 hPa 0,0 l/m
13.05.2007 01:00 9,3 C 73 % 1017 hPa 0,0 l/m
13.05.2007 02:00 8,7 C 77 % 1016 hPa 0,0 l/m
13.05.2007 03:00 8,6 C 80 % 1016 hPa 0,0 l/m
13.05.2007 04:00 8,5 C 81 % 1015 hPa 0,0 l/m
13.05.2007 05:00 8,2 C 83 % 1015 hPa 0,0 l/m
13.05.2007 06:00 8,4 C 82 % 1014 hPa 0,0 l/m
13.05.2007 07:00 10,2 C 76 % 1014 hPa 0,0 l/m
13.05.2007 08:00 13,4 C 64 % 1014 hPa 0,0 l/m
13.05.2007 09:00 17,5 C 48 % 1013 hPa 0,0 l/m
13.05.2007 10:00 20,4 C 42 % 1013 hPa 0,0 l/m
13.05.2007 11:00 22,8 C 36 % 1012 hPa 0,0 l/m
13.05.2007 12:00 24,6 C 33 % 1012 hPa 0,0 l/m
13.05.2007 13:00 26,3 C 30 % 1011 hPa 0,0 l/m
13.05.2007 14:00 27,4 C 26 % 1010 hPa 0,0 l/m
13.05.2007 15:00 27,7 C 22 % 1010 hPa 0,0 l/m
13.05.2007 16:00 27,3 C 24 % 1009 hPa 0,0 l/m
13.05.2007 17:00 26,0 C 26 % 1009 hPa 0,0 l/m
13.05.2007 18:00 24,3 C 30 % 1009 hPa 0,0 l/m
13.05.2007 19:00 22,9 C 32 % 1009 hPa 0,0 l/m
13.05.2007 20:00 21,5 C 32 % 1010 hPa 0,0 l/m
13.05.2007 21:00 20,9 C 32 % 1010 hPa 0,0 l/m
13.05.2007 22:00 20,6 C 33 % 1011 hPa 0,0 l/m
13.05.2007 23:00 19,7 C 34 % 1011 hPa 0,0 l/m
Min-Datum _ 07.05.07 13.05.07 13.05.07 -
_ Min-Zeit 05:15 15:08 15:51 -
Minimum _ 7,3 C 22 % 1009 hPa -
Max-Datum _ 13.05.07 07.05.07 09.05.07 08.05.07
_ Max-Zeit 15:06 05:31 21:07 21:01
Maximum _ 27,8 C 98 % 1021 hPa 7,0 l/m
Durchschnitt _ 14,9 C 62 % 1016 hPa #22,0 l/m

Durchschnitt Minimum Temp.14,4 C
Durchschnitt Maximum Temp.15,3 C